Welcome to the New NWS' Forecast!
Most changes are behind the scenes, but click here for differences you might notice.

Regional Weather Roundup (RWR)

Issued by National Weather Service (NWS)

                            
212 
ASUS46 KSEW 172010
RWRWA 

WASHINGTON REGIONAL WEATHER ROUNDUP
NATIONAL WEATHER SERVICE SEATTLE WA
100 PM PDT MON SEP 17 2018

NOTE:"FAIR" INDICATES FEW OR NO CLOUDS BELOW 12,000 FEET WITH NO 
SIGNIFICANT WEATHER AND/OR OBSTRUCTIONS TO VISIBILITY.

WAZ507-509-555>559-172100-
SEATTLE, TACOMA, EVERETT, AND VICINITY
  
CITY           SKY/WX    TMP DP  RH WIND       PRES   REMARKS
EVERETT        SUNNY     60  41  49 NW7       30.15F                  
BOEING FIELD   MOSUNNY   63  44  50 NW9       30.14S                  
RENTON         SUNNY     63  44  50 NW8       30.13F                  
SEATAC AIRPORT MOSUNNY   63  46  54 W10       30.13F                  
JBLM-MCCHORD   NOT AVBL                                               
PUYALLUP       FAIR      61  50  67 CALM      30.13F                  
BREMERTON      MOSUNNY   61  43  51 NE6       30.14F                  
JBLM-FT LEWIS  NOT AVBL                                               
TACOMA NARROWS PTSUNNY   60  44  55 N5        30.13F                  
$$
 
WAZ001-503-506-510-514-515-172100-
NORTH INTERIOR
  
CITY           SKY/WX    TMP DP  RH WIND       PRES   REMARKS
BELLINGHAM     MOSUNNY   61  45  55 SE7       30.15S                  
FRIDAY HARBOR  SUNNY     62  45  53 E7        30.16F                  
EASTSOUND      SUNNY     57  46  67 N5        30.14F                  
PORT ANGELES   SUNNY     59  43  55 NW10      30.16F                  
EDIZ HOOK      FAIR      54  50  85 NW3       30.16F                  
PORT TOWNSEND  FAIR      61  43  51 NW8       30.15S                  
NAS WHIDBEY    MOSUNNY   60  47  61 W7        30.19F                  
ARLINGTON      SUNNY     62  45  53 NW5       30.14F                  
BURLINGTON     MOSUNNY   61  46  59 W7        30.15S                  
$$
 
WAZ020-022-039-040-504-511-512-172100-
SOUTHWEST INTERIOR
  
CITY           SKY/WX    TMP DP  RH WIND       PRES   REMARKS
SHELTON        CLOUDY    61  45  55 VRB3      30.12F                  
OLYMPIA        PTSUNNY   59  46  62 CALM      30.14F                  
CHEHALIS       PTSUNNY   59  50  72 VRB5      30.14F                  
KELSO          MOSUNNY   63  49  60 N10       30.11F                  
VANCOUVER      PTSUNNY   64  49  57 NW9       30.08F                  
SCAPPOOSE, OR  MOSUNNY   65  46  50 NW10      30.08F                  
PORTLAND, OR   PTSUNNY   64  48  56 NW5       30.09F                  
$$
 
WAZ021-516-517-172100-
WASHINGTON COAST
  
CITY           SKY/WX    TMP DP  RH WIND       PRES   REMARKS
FORKS          MOSUNNY   62  46  55 N8        30.14F                  
HOQUIAM        PTSUNNY   60  51  72 S7        30.14F                  
ASTORIA, OR    MOSUNNY   64  47  53 NW14      30.12F                  
$$
 
WAZ019-023-024-040-567>569-172100-
CASCADE MOUNTAINS AND COLUMBIA GORGE
  
CITY           SKY/WX    TMP DP  RH WIND       PRES   REMARKS
STAMPEDE PASS  MOSUNNY   53  40  61 CALM      30.10F                  
TROUTDALE, OR  PTSUNNY   61  49  64 CALM      30.09F                  
HOOD RIVER, OR MOCLDY    63  45  51 W5        30.08F                  
THE DALLES, OR PTSUNNY   65  45  48 CALM      30.06F                  
$$

WAZ026-027-041>044-520-521-172100-
EAST SLOPES
  
CITY           SKY/WX    TMP DP  RH WIND       PRES   REMARKS
OMAK           SUNNY     66  36  32 N7        30.08F                  
WENATCHEE      SUNNY     64  32  30 VRB5      30.07F                  
ELLENSBURG     SUNNY     65  37  35 S5        30.08F                  
YAKIMA         MOSUNNY   64  39  39 SW5       30.08F                  
SUNNYSIDE ARPT MOCLDY    64  42  45 CALM      30.08F                  
YAKIMA TC      NOT AVBL                                               
$$

WAZ028-034-035-172100-
COLUMBIA BASIN
  
CITY           SKY/WX    TMP DP  RH WIND       PRES   REMARKS
EPHRATA        SUNNY     67  33  28 NE6       30.07F                  
MOSES LAKE     MOSUNNY   65  33  30 SW3       30.08F                  
PASCO          PTSUNNY   67  40  37 N8        30.08F                  
RICHLAND ARPT  PTCLDY    68  42  38 N6        30.08F                  
HERMISTON, OR  PTSUNNY   69  42  37 VRB5      30.05F                  
$$

WAZ036>038-172100-
NORTHEAST WASHINGTON
  
CITY           SKY/WX    TMP DP  RH WIND       PRES   REMARKS
SPOKANE GEIGER PTSUNNY   61  36  39 N5        30.09F                  
SPOKANE FELTS  MOSUNNY   63  35  35 CALM      30.09F                  
FAIRCHILD AFB  NOT AVBL                                               
COEURDALENE,ID MOSUNNY   62  37  39 E5        30.10F                  
DEER PARK      MOSUNNY   60  35  39 VRB3      30.10F                  
$$

WAZ029>033-172100-
SOUTHEAST WASHINGTON
  
CITY           SKY/WX    TMP DP  RH WIND       PRES   REMARKS
PULLMAN        PTSUNNY   62  39  42 VRB3      30.10F                  
LEWISTON, ID   MOSUNNY   68  41  37 VRB3      30.05F                  
WALLA WALLA    MOSUNNY   67  36  31 N3        30.06F                  
PENDLETON, OR  MOSUNNY   66  38  35 NE5       30.05F                  
$$